Location: Ammerl�gen
(47.2167°N, 9.6000°E)
Time: 13:46:08
(UTC+00:00)

RS-15 - Pass Details

Date: 16 December 2021
Orbit: 1882 x 2162 km, 64.8° (Epoch: 28 January)

Event Time Altitude Azimuth Distance (km) Brightness Sun altitude
Exits shadow 02:12:02 49° 12° (NNE) 2,582 8.5 -47.8°
Drops below altitude 10° 02:20:40 10° 39° (NE) 4,663 10.4 -46.4°
Sets 02:24:16 0° 43° (NE) 5,684 11.0 -45.9°
